N5TDX Weather Reports


time (UTC)temp
F
wind
direction
speed
knots
gust
knots
rain 1hr
in
rain 24hr
in
rain mn
in
humidity
%
barometer
mb
20260506165353 55 53 2.6 6.1 0.00 0.04 0.04 80 1011.3
20260506164849 54 16 3.5 5.2 0.00 0.04 0.04 80 1011.2
20260506164345 54 326 1.7 5.2 0.00 0.04 0.04 80 1011.7
20260506163843 54 29 0.9 2.6 0.00 0.04 0.04 82 1011.8
20260506163337 54 103 1.7 2.6 0.00 0.04 0.04 82 1011.7
20260506162833 54 310 0.0 6.1 0.00 0.04 0.04 83 1011.9
20260506162331 54 35 1.7 2.6 0.00 0.04 0.04 83 1011.9
20260506161828 54 11 0.0 6.1 0.00 0.04 0.04 82 1012.0
20260506161326 54 121 1.7 2.6 0.00 0.04 0.04 83 1011.7
20260506160823 54 354 0.0 1.7 0.00 0.04 0.04 83 1011.7
20260506160320 54 340 0.0 3.5 0.00 0.04 0.04 84 1011.7
20260506155819 54 52 0.9 3.5 0.00 0.04 0.04 83 1011.9
20260506155315 54 21 7.0 8.7 0.00 0.04 0.04 84 1011.3
20260506153427 54 333 2.6 5.2 0.00 0.04 0.04 86 1010.7
20260506152925 53 50 1.7 3.5 0.00 0.04 0.04 88 1011.1
20260506152421 53 4 2.6 5.2 0.00 0.04 0.04 88 1011.1
20260506151920 53 89 0.0 2.6 0.00 0.04 0.04 89 1011.7
20260506151416 52 319 0.9 2.6 0.00 0.04 0.04 89 1012.0
20260506150914 52 318 0.9 1.7 0.00 0.04 0.04 88 1012.4
20260506150410 52 262 0.0 0.9 0.07 0.04 0.04 88 1013.2
20260506145907 52 336 0.0 0.9 0.17 0.03 0.03 87 1012.3
20260506145403 53 36 1.7 1.7 0.12 0.02 0.02 86 1011.8
20260506144901 53 52 0.0 0.9 0.00 0.00 0.00 84 1013.3
20260506144357 53 81 0.0 0.9 0.00 0.00 0.00 83 1013.4
20260506143856 53 306 0.0 1.7 0.00 0.00 0.00 81 1013.0
20260506143352 53 24 0.0 0.9 0.00 0.00 0.00 82 1012.9
20260506142851 53 8 0.0 0.9 0.00 0.00 0.00 82 1013.3
20260506142348 53 20 1.7 2.6 0.00 0.00 0.00 82 1012.5
20260506141846 53 35 0.9 5.2 0.00 0.00 0.00 82 1011.6
20260506141344 53 5 1.7 5.2 0.00 0.00 0.00 82 1010.7
20260506140842 53 308 1.7 1.7 0.00 0.00 0.00 82 1011.2
20260506140339 53 20 1.7 3.5 0.00 0.00 0.00 81 1011.5
20260506135836 53 339 0.9 3.5 0.00 0.00 0.00 79 1011.7
20260506135332 53 349 0.0 0.9 0.00 0.00 0.00 80 1012.3
20260506134828 53 356 0.0 1.7 0.00 0.00 0.00 79 1012.2
20260506134325 53 308 0.9 1.7 0.00 0.00 0.00 79 1011.7
20260506133822 53 344 1.7 3.5 0.00 0.00 0.00 79 1011.6
20260506133319 53 25 0.9 1.7 0.00 0.00 0.00 79 1011.4
20260506132816 53 312 1.7 2.6 0.00 0.00 0.00 78 1011.3
20260506132313 53 339 0.0 0.9 0.00 0.00 0.00 78 1011.2
20260506131811 53 356 0.0 1.7 0.00 0.00 0.00 78 1010.9
20260506131306 53 337 0.9 2.6 0.00 0.00 0.00 78 1011.0
20260506130804 53 24 1.7 2.6 0.00 0.00 0.00 78 1011.0
20260506130300 53 17 0.0 3.5 0.00 0.00 0.00 78 1011.0
20260506125759 53 4 4.3 5.2 0.00 0.00 0.00 77 1010.8
20260506125256 54 320 1.7 6.1 0.00 0.00 0.00 77 1010.5
20260506124754 54 329 0.9 1.7 0.00 0.00 0.00 77 1010.1
20260506124251 54 21 1.7 5.2 0.00 0.00 0.00 76 1010.2
20260506123749 54 63 2.6 3.5 0.00 0.00 0.00 75 1010.3
20260506123248 55 352 1.7 3.5 0.00 0.00 0.00 74 1010.2
20260506122744 55 332 0.9 1.7 0.00 0.00 0.00 74 1010.1
20260506122241 55 12 1.7 3.5 0.00 0.00 0.00 73 1010.5
20260506121739 55 15 1.7 7.0 0.00 0.00 0.00 72 1009.9
20260506121236 55 22 0.9 2.6 0.00 0.00 0.00 72 1010.3
20260506120733 55 130 2.6 7.0 0.00 0.00 0.00 72 1009.9
20260506120231 55 301 0.9 1.7 0.00 0.00 0.00 72 1009.9
20260506115728 56 34 1.7 2.6 0.00 0.00 0.00 72 1009.8
20260506115227 56 323 0.9 2.6 0.00 0.00 0.00 71 1010.0
20260506114724 56 343 0.9 1.7 0.00 0.00 0.00 71 1009.8
20260506114221 56 38 1.7 1.7 0.00 0.00 0.00 71 1009.8
20260506113720 56 342 1.7 2.6 0.00 0.00 0.00 71 1009.5
20260506113217 56 338 0.9 1.7 0.00 0.00 0.00 71 1009.6
20260506112713 56 94 0.0 2.6 0.00 0.00 0.00 71 1009.3
20260506112211 56 78 1.7 2.6 0.00 0.00 0.00 70 1009.5
20260506111708 56 322 0.0 2.6 0.00 0.00 0.00 70 1009.1
20260506111206 56 348 0.0 2.6 0.00 0.00 0.00 71 1009.3
20260506110703 57 236 3.5 5.2 0.00 0.00 0.00 70 1008.9
20260506110200 57 325 0.0 1.7 0.00 0.00 0.00 72 1008.6
20260506105657 57 19 0.0 3.5 0.00 0.00 0.00 71 1008.8
20260506105154 57 264 0.9 2.6 0.00 0.00 0.00 73 1009.0
20260506104652 57 117 0.9 2.6 0.00 0.00 0.00 72 1008.8
20260506104149 57 3 0.9 2.6 0.00 0.00 0.00 72 1008.7
20260506103646 57 79 1.7 3.5 0.00 0.00 0.00 72 1008.7
20260506103143 57 321 0.9 2.6 0.00 0.00 0.00 72 1008.4
20260506102641 57 27 1.7 3.5 0.00 0.00 0.00 71 1008.2
20260506102138 57 13 0.0 2.6 0.00 0.00 0.00 72 1008.4
20260506101635 57 94 0.0 6.1 0.00 0.00 0.00 72 1008.3
20260506101132 58 52 0.9 2.6 0.00 0.00 0.00 71 1008.2
20260506100631 58 9 0.9 1.7 0.00 0.00 0.00 72 1008.1
20260506100128 57 44 1.7 1.7 0.00 0.00 0.00 72 1008.0
20260506095627 58 63 0.9 2.6 0.00 0.00 0.00 72 1008.0
20260506095123 58 45 2.6 5.2 0.00 0.00 0.00 72 1007.8
20260506094620 58 338 1.7 2.6 0.00 0.00 0.00 72 1007.7
20260506094118 58 164 0.0 1.7 0.00 0.00 0.00 73 1007.5
20260506093616 58 20 0.9 1.7 0.00 0.00 0.00 73 1007.8
20260506093113 58 14 0.9 1.7 0.00 0.00 0.00 73 1007.9
20260506092611 58 56 0.0 0.9 0.00 0.00 0.00 73 1007.7
20260506092107 58 333 0.0 2.6 0.00 0.00 0.00 73 1007.9
20260506091606 58 19 0.0 3.5 0.00 0.00 0.00 73 1007.8
20260506091103 58 60 0.0 1.7 0.00 0.00 0.00 73 1007.6
20260506090601 58 23 0.0 0.9 0.00 0.00 0.00 73 1007.7
20260506090056 58 331 1.7 2.6 0.00 0.00 0.00 72 1007.6
20260506085554 58 352 0.9 1.7 0.00 0.00 0.00 72 1007.5
20260506085050 59 2 1.7 3.5 0.00 0.00 0.00 73 1007.6
20260506084547 59 30 0.9 2.6 0.00 0.00 0.00 73 1007.7
20260506084043 59 15 0.9 0.9 0.00 0.00 0.00 73 1007.5
20260506083541 59 64 0.0 0.9 0.00 0.00 0.00 73 1007.4
20260506083038 59 352 0.9 1.7 0.00 0.00 0.00 73 1007.4
20260506082535 59 31 0.9 0.9 0.00 0.00 0.00 73 1007.2
20260506082030 59 1 0.0 0.9 0.00 0.00 0.00 73 1007.4
20260506081529 59 104 0.0 0.9 0.00 0.00 0.00 73 1007.3
20260506081026 60 82 0.0 1.7 0.00 0.00 0.00 74 1007.3
20260506080523 60 78 0.9 1.7 0.00 0.00 0.00 74 1007.2
20260506073507 60 66 1.7 2.6 0.00 0.00 0.00 74 1007.0
20260506073004 60 337 0.0 2.6 0.00 0.00 0.00 75 1007.0
20260506072501 60 33 3.5 5.2 0.00 0.00 0.00 75 1006.9
20260506071959 60 57 0.9 2.6 0.00 0.00 0.00 75 1006.9
20260506071456 60 46 2.6 3.5 0.00 0.00 0.00 74 1006.9
20260506070953 60 45 1.7 2.6 0.00 0.00 0.00 74 1006.9
20260506070450 60 324 0.0 0.9 0.00 0.00 0.00 74 1006.9
20260506062428 61 285 0.0 2.6 0.00 0.00 0.00 75 1006.8
20260506061923 61 44 0.0 1.7 0.00 0.00 0.00 75 1006.9
20260506061420 61 40 0.0 2.6 0.00 0.00 0.00 75 1006.7
20260506060918 61 349 1.7 1.7 0.00 0.00 0.00 74 1006.8
20260506060416 61 28 0.9 1.7 0.00 0.00 0.00 74 1006.9
20260506051348 63 343 1.7 5.2 0.00 0.00 0.00 72 1006.9
20260506050845 63 13 0.0 2.6 0.00 0.00 0.00 73 1006.9
20260506050343 63 1 0.9 1.7 0.00 0.00 0.00 72 1006.9
20260506044833 64 245 0.9 3.5 0.00 0.00 0.00 71 1007.1
20260506044331 64 82 0.9 2.6 0.00 0.00 0.00 71 1007.0
20260506043828 64 94 0.0 2.6 0.00 0.00 0.00 72 1006.6
20260506043325 65 1 0.9 2.6 0.00 0.00 0.00 71 1006.8
20260506042823 65 324 0.9 1.7 0.00 0.00 0.00 71 1006.8
20260506042322 65 68 0.9 5.2 0.00 0.00 0.00 71 1006.8
20260506041821 65 317 0.9 1.7 0.00 0.00 0.00 71 1006.9
20260506041317 66 95 1.7 2.6 0.00 0.00 0.00 71 1007.1
20260506040814 66 311 0.0 1.7 0.00 0.00 0.00 70 1006.9
20260506040312 67 18 0.9 1.7 0.00 0.00 0.00 70 1006.9
20260506035808 67 29 0.9 5.2 0.00 0.00 0.00 69 1006.7
20260506035306 67 295 0.9 2.6 0.00 0.00 0.00 69 1006.7
20260506034802 67 44 0.9 1.7 0.00 0.00 0.00 69 1006.3
20260506034259 67 336 1.7 1.7 0.00 0.00 0.00 69 1006.3
20260506033756 67 52 3.5 5.2 0.00 0.00 0.00 68 1006.1
20260506033253 67 50 2.6 3.5 0.00 0.00 0.00 68 1006.0
20260506032750 67 32 2.6 7.0 0.00 0.00 0.00 68 1005.9
20260506032247 68 338 1.7 3.5 0.00 0.00 0.00 67 1006.0
20260506031743 68 11 0.9 5.2 0.00 0.00 0.00 67 1005.8
20260506031241 68 339 0.9 1.7 0.00 0.00 0.00 67 1005.3
20260506030739 68 344 1.7 2.6 0.00 0.00 0.00 66 1005.7
20260506030236 68 87 1.7 3.5 0.00 0.00 0.00 67 1005.3
20260506025733 68 352 0.0 1.7 0.00 0.00 0.00 67 1005.3
20260506025230 69 302 0.9 3.5 0.00 0.00 0.00 66 1005.2
20260506024726 69 90 0.9 3.5 0.00 0.00 0.00 66 1005.0
20260506024223 69 24 0.9 2.6 0.00 0.00 0.00 66 1005.2
20260506023719 69 39 0.0 3.5 0.00 0.00 0.00 66 1004.9
20260506023217 69 281 1.7 3.5 0.00 0.00 0.00 66 1004.7
20260506022713 70 91 1.7 2.6 0.00 0.00 0.00 66 1005.0
20260506022211 70 32 1.7 2.6 0.00 0.00 0.00 65 1004.7
20260506021709 70 56 0.9 5.2 0.00 0.00 0.00 65 1004.5
20260506021206 70 52 2.6 3.5 0.00 0.00 0.00 64 1004.7
20260506020703 71 98 0.9 7.8 0.00 0.00 0.00 65 1004.6
20260506020200 71 9 0.9 2.6 0.00 0.00 0.00 65 1004.2
20260506015658 71 25 0.9 2.6 0.00 0.00 0.00 65 1004.4
20260506015155 72 37 0.9 3.5 0.00 0.00 0.00 65 1004.2
20260506014652 72 20 0.9 1.7 0.00 0.00 0.00 64 1004.0
20260506014148 72 55 0.9 3.5 0.00 0.00 0.00 64 1003.6
20260506013646 72 49 0.9 2.6 0.00 0.00 0.00 63 1003.9
20260506013143 73 9 1.7 1.7 0.00 0.00 0.00 63 1003.8
20260506012639 73 338 0.0 3.5 0.00 0.00 0.00 63 1003.3
20260506012136 73 60 0.9 3.5 0.00 0.00 0.00 63 1003.5
20260506011633 73 2 1.7 2.6 0.00 0.00 0.00 62 1003.2
20260506011129 74 36 1.7 5.2 0.00 0.00 0.00 62 1003.0
20260506010628 74 25 0.0 2.6 0.00 0.00 0.00 61 1002.8
20260506010125 74 64 0.0 1.7 0.00 0.00 0.00 61 1003.0
20260506005622 74 53 0.9 2.6 0.00 0.00 0.00 61 1003.1
20260506005118 74 33 0.9 1.7 0.00 0.00 0.00 61 1002.6
20260506004615 75 326 0.9 1.7 0.00 0.00 0.00 60 1002.9
20260506004112 75 59 1.7 2.6 0.00 0.00 0.00 60 1002.9
20260506003608 75 13 0.9 2.6 0.00 0.00 0.00 60 1002.8
20260506003104 76 331 1.7 1.7 0.00 0.00 0.00 59 1002.9
20260506002600 76 48 0.9 2.6 0.00 0.00 0.00 59 1002.3
20260506002057 76 334 1.7 1.7 0.00 0.00 0.00 58 1002.6
20260506001553 77 77 0.0 1.7 0.00 0.00 0.00 57 1002.5
20260506001050 77 321 1.7 2.6 0.00 0.00 0.00 57 1002.4
20260506000547 77 30 1.7 5.2 0.00 0.00 0.00 56 1002.4
20260506000045 77 355 0.9 3.5 0.00 0.00 0.00 56 1002.5
20260505235543 78 59 0.9 2.6 0.00 0.00 0.00 55 1002.3
20260505235039 78 21 1.7 6.1 0.00 0.00 0.00 54 1002.3
20260505234536 79 61 0.9 3.5 0.00 0.00 0.00 54 1001.9
20260505234033 79 57 0.9 1.7 0.00 0.00 0.00 55 1002.2
20260505233530 79 345 1.7 3.5 0.00 0.00 0.00 54 1001.8
20260505233028 80 299 1.7 2.6 0.00 0.00 0.00 54 1002.0
20260505232526 80 46 1.7 3.5 0.00 0.00 0.00 54 1001.7
20260505232023 80 28 1.7 5.2 0.00 0.00 0.00 54 1001.7
20260505231520 80 49 1.7 3.5 0.00 0.00 0.00 55 1001.7
20260505231019 81 1 1.7 3.5 0.00 0.00 0.00 54 1001.7
20260505230515 82 33 3.5 6.1 0.00 0.00 0.00 54 1001.6
20260505230012 83 83 2.6 5.2 0.00 0.00 0.00 54 1001.6
20260505225509 83 60 3.5 7.0 0.00 0.00 0.00 54 1001.5
20260505225005 85 72 0.9 6.1 0.00 0.00 0.00 52 1001.5
20260505224502 85 349 0.0 3.5 0.00 0.00 0.00 48 1001.4
20260505223959 86 219 0.9 1.7 0.00 0.00 0.00 44 1001.3
20260505223456 87 337 0.9 1.7 0.00 0.00 0.00 42 1001.5
20260505222952 87 354 0.0 1.7 0.00 0.00 0.00 44 1001.1
20260505222449 87 62 0.9 1.7 0.00 0.00 0.00 44 1001.2
20260505221944 87 5 0.9 1.7 0.00 0.00 0.00 42 1001.0
20260505221442 88 52 1.7 2.6 0.00 0.00 0.00 42 1001.2
20260505220939 90 55 1.7 3.5 0.00 0.00 0.00 40 1001.1
20260505220436 92 293 0.9 1.7 0.00 0.00 0.00 39 1000.7
20260505215933 91 257 0.0 2.6 0.00 0.00 0.00 42 1000.8
20260505215431 91 228 2.6 2.6 0.00 0.00 0.00 39 1000.8
20260505214929 91 214 1.7 2.6 0.00 0.00 0.00 40 1000.9
20260505214426 92 224 0.9 3.5 0.00 0.00 0.00 39 1001.0
20260505213924 92 305 0.0 2.6 0.00 0.00 0.00 40 1000.9
20260505213421 92 300 0.9 1.7 0.00 0.00 0.00 38 1001.0
20260505212917 92 8 0.9 2.6 0.00 0.00 0.00 40 1000.7
20260505212414 91 267 1.7 3.5 0.00 0.00 0.00 40 1001.1
20260505211911 91 277 1.7 2.6 0.00 0.00 0.00 39 1001.1
20260505211409 91 218 1.7 5.2 0.00 0.00 0.00 41 1001.2
20260505210904 92 277 2.6 7.0 0.00 0.00 0.00 39 1001.2
20260505210402 91 263 0.9 3.5 0.00 0.00 0.00 38 1001.3
20260505205858 91 235 1.7 2.6 0.00 0.00 0.00 39 1001.2
20260505205357 91 248 0.9 7.8 0.00 0.00 0.00 40 1001.3
20260505204853 91 334 1.7 3.5 0.00 0.00 0.00 38 1001.6
20260505204351 91 197 3.5 5.2 0.00 0.00 0.00 40 1001.5
20260505203848 91 308 0.9 5.2 0.00 0.00 0.00 43 1001.7
20260505203344 91 278 0.0 0.9 0.00 0.00 0.00 45 1001.7
20260505202841 91 220 0.9 2.6 0.00 0.00 0.00 46 1001.8
20260505202337 91 215 0.9 1.7 0.00 0.00 0.00 45 1001.8
20260505201834 90 212 2.6 3.5 0.00 0.00 0.00 46 1001.8
20260505201332 90 242 1.7 3.5 0.00 0.00 0.00 46 1001.9
20260505200830 90 225 2.6 6.1 0.00 0.00 0.00 45 1001.9
20260505200326 90 252 3.5 7.0 0.00 0.00 0.00 45 1002.0
20260505195822 90 218 3.5 6.1 0.00 0.00 0.00 46 1001.9
20260505195319 90 247 1.7 2.6 0.00 0.00 0.00 45 1002.1
20260505194816 90 276 1.7 7.0 0.00 0.00 0.00 46 1002.1
20260505194313 90 257 4.3 6.1 0.00 0.00 0.00 44 1002.0
20260505193808 90 323 5.2 7.0 0.00 0.00 0.00 44 1002.0
20260505193307 90 284 2.6 6.1 0.00 0.00 0.00 47 1001.9
20260505192804 90 244 2.6 7.8 0.00 0.00 0.00 47 1001.9
20260505192305 89 317 1.7 7.0 0.00 0.00 0.00 47 1002.1
20260505191800 89 207 3.5 3.5 0.00 0.00 0.00 49 1002.0
20260505191258 88 219 3.5 6.1 0.00 0.00 0.00 49 1001.9
20260505190754 88 238 3.5 6.1 0.00 0.00 0.00 49 1002.0
20260505190249 87 254 5.2 7.8 0.00 0.00 0.00 50 1002.0
20260505185746 88 262 7.0 8.7 0.00 0.00 0.00 49 1001.9
20260505185242 89 247 2.6 6.1 0.00 0.00 0.00 50 1002.1
20260505184738 88 220 3.5 6.1 0.00 0.00 0.00 51 1002.0
20260505184236 88 297 3.5 6.1 0.00 0.00 0.00 51 1002.1
20260505183733 88 272 1.7 8.7 0.00 0.00 0.00 53 1002.0
20260505183230 87 242 0.9 1.7 0.00 0.00 0.00 54 1002.2
20260505182726 87 272 5.2 7.8 0.00 0.00 0.00 53 1002.2
20260505182223 87 213 3.5 6.1 0.00 0.00 0.00 56 1002.1
20260505181719 87 155 0.9 6.1 0.00 0.00 0.00 57 1002.3
20260505181217 86 249 1.7 2.6 0.00 0.00 0.00 58 1002.2
20260505180714 86 253 2.6 7.8 0.00 0.00 0.00 57 1002.4
20260505180210 85 299 2.6 5.2 0.00 0.00 0.00 59 1002.3
20260505175706 84 219 0.9 3.5 0.00 0.00 0.00 61 1002.4
20260505175203 84 318 3.5 7.0 0.00 0.00 0.00 60 1002.2
20260505174659 84 211 0.9 2.6 0.00 0.00 0.00 61 1002.4
20260505174155 84 198 3.5 5.2 0.00 0.00 0.00 61 1002.5
20260505173652 84 276 3.5 6.1 0.00 0.00 0.00 61 1002.5
20260505173149 84 219 1.7 2.6 0.00 0.00 0.00 61 1002.6
20260505172647 83 233 3.5 6.1 0.00 0.00 0.00 63 1002.6
20260505172144 83 262 0.9 2.6 0.00 0.00 0.00 64 1002.7
20260505171643 82 245 1.7 3.5 0.00 0.00 0.00 65 1002.6
20260505171141 82 228 1.7 3.5 0.00 0.00 0.00 65 1002.5
20260505170638 82 257 2.6 5.2 0.00 0.00 0.00 65 1002.6
20260505170134 82 239 1.7 3.5 0.00 0.00 0.00 64 1002.6
20260505165629 82 295 1.7 2.6 0.00 0.00 0.00 65 1002.7